Tracking 30918 objects as of 2-Jul-2025
HD Live streaming from Space Station
objects crossing your sky now

STARLINK-3354

Track STARLINK-3354 now!
10-day predictions
STARLINK-3354 is classified as:


NORAD ID: 51146
Int'l Code: 2022-005AU
Perigee: 546.0 km
Apogee: 547.8 km
Inclination: 53.2 °
Period: 95.4 minutes
Semi major axis: 6917 km
RCS: Unknown
Launch date: January 19, 2022
Source: United States (US)
Launch site: AIR FORCE EASTERN TEST RANGE (AFETR)
Your satellite tracking list
FENGYUN 1C DEB
Track 1 satellite(s)




NASA's NSSDC Master Catalog

Two Line Element Set (TLE):
1 51146U 22005AU  25182.86265257 -.00000662  00000-0 -23480-4 0  9992
2 51146  53.2184 345.1348 0001274  91.4049 268.7089 15.08839631190869
Source of the keplerian elements: AFSPC